Back to catalog

COSMOS 2457

GLONASS

AliveNavigationMEO
NORAD 36112·PAYLOAD·🇷🇺 Russia

Launched Dec 14, 2009 from Baikonur Cosmodrome

Loading…

Next Passes (next 24 hours)

TLE

FreshSource: Space-Track

Epoch: Sep 13, 2026, 20:19 UTC

1 36112U 09070B   26256.84679212 -.00000013  00000-0  00000-0 0  9994
2 36112  65.0539  67.7926 0005887 131.5788 228.2888  2.13100834130319

Track COSMOS 2457 in real time with AllMySat

Download on the App Store